Location: Bradford+West+Gwillimbury,+ON,+Canadà
(44.1162°N, 79.5735°W)
Time: 15:54:08
(UTC-04:00)

STARLINK-2617 - Pass Details

Date: 22 June 2021
Orbit: 348 x 351 km, 53.0° (Epoch: 05 August)

Event Time Altitude Azimuth Distance (km) Brightness Sun altitude
Rises 13:52:18 0° 273° (W) 2,212 6.8 68.3°
Enters shadow 14:26:02 -57° 137° (SE) 11,049 9.8 65.3°
Exits shadow 15:02:19 -50° 339° (NNW) 10,278 9.6 60.6°
Maximum altitude 04:51:24 24° 135° (SE) 818 4.6 -7.0°
